| time (UTC) | temp F | wind direction | speed knots | gust knots | rain 1hr in | rain 24hr in | rain mn in | humidity % | barometer mb |
| 20260506224145 | 60 | 108 | 0.9 | 0.9 | 0.00 | 0.00 | 0.00 | 92 | 983.7 |
| 20260506223745 | 60 | 99 | 0.9 | 1.7 | 0.00 | 0.00 | 0.00 | 92 | 983.8 |
| 20260506223346 | 60 | 73 | 0.9 | 1.7 | 0.00 | 0.00 | 0.00 | 93 | 983.7 |
| 20260506222946 | 60 | 46 | 1.7 | 2.6 | 0.00 | 0.00 | 0.00 | 93 | 983.7 |
| 20260506222546 | 60 | 37 | 2.6 | 4.3 | 0.00 | 0.00 | 0.00 | 94 | 983.7 |
| 20260506221743 | 60 | 21 | 2.6 | 5.2 | 0.00 | 0.00 | 0.00 | 94 | 983.7 |
| 20260506221343 | 60 | 24 | 2.6 | 4.3 | 0.00 | 0.00 | 0.00 | 94 | 983.8 |
| 20260506220941 | 59 | 55 | 2.6 | 4.3 | 0.00 | 0.00 | 0.00 | 94 | 983.7 |
| 20260506220541 | 59 | 46 | 3.5 | 5.2 | 0.00 | 0.00 | 0.00 | 95 | 983.7 |
| 20260506220139 | 59 | 15 | 2.6 | 4.3 | 0.00 | 0.00 | 0.00 | 95 | 983.7 |
| 20260506215339 | 59 | 29 | 2.6 | 4.3 | 0.00 | 0.00 | 0.00 | 95 | 983.8 |
| 20260506214939 | 59 | 5 | 0.9 | 3.5 | 0.00 | 0.00 | 0.00 | 95 | 983.8 |
| 20260506214539 | 59 | 333 | 1.7 | 4.3 | 0.00 | 0.00 | 0.00 | 96 | 983.9 |
| 20260506214137 | 59 | 344 | 2.6 | 5.2 | 0.00 | 0.00 | 0.00 | 96 | 983.9 |
| 20260506213737 | 59 | 3 | 5.2 | 7.0 | 0.00 | 0.00 | 0.00 | 96 | 983.9 |
| 20260506213337 | 59 | 328 | 5.2 | 7.0 | 0.00 | 0.00 | 0.00 | 96 | 984.0 |
| 20260506212937 | 59 | 302 | 5.2 | 7.0 | 0.00 | 0.00 | 0.00 | 96 | 984.1 |
| 20260506212537 | 59 | 295 | 6.1 | 7.8 | 0.00 | 0.00 | 0.00 | 96 | 984.2 |
| 20260506212135 | 60 | 297 | 6.1 | 7.8 | 0.00 | 0.00 | 0.00 | 95 | 984.1 |
| 20260506211735 | 59 | 294 | 6.1 | 7.8 | 0.00 | 0.00 | 0.00 | 95 | 984.0 |
| 20260506211335 | 59 | 293 | 6.1 | 8.7 | 0.00 | 0.00 | 0.00 | 94 | 983.9 |
| 20260506210928 | 59 | 276 | 4.3 | 6.1 | 0.00 | 0.00 | 0.00 | 95 | 983.9 |
| 20260506210527 | 60 | 284 | 8.7 | 10.4 | 0.00 | 0.00 | 0.00 | 94 | 983.9 |
| 20260506210124 | 60 | 287 | 7.0 | 8.7 | 0.00 | 0.00 | 0.00 | 94 | 983.9 |
| 20260506205721 | 60 | 277 | 8.7 | 12.2 | 0.00 | 0.00 | 0.00 | 93 | 984.0 |
| 20260506204920 | 61 | 272 | 7.0 | 9.6 | 0.00 | 0.00 | 0.00 | 91 | 983.9 |
| 20260506204520 | 61 | 271 | 7.8 | 10.4 | 0.00 | 0.00 | 0.00 | 90 | 983.8 |
| 20260506204118 | 61 | 265 | 6.1 | 8.7 | 0.00 | 0.00 | 0.00 | 90 | 983.8 |
| 20260506203718 | 61 | 273 | 7.0 | 8.7 | 0.00 | 0.00 | 0.00 | 89 | 983.7 |
| 20260506203319 | 60 | 253 | 7.0 | 10.4 | 0.00 | 0.00 | 0.00 | 89 | 983.8 |
| 20260506202919 | 60 | 271 | 7.0 | 9.6 | 0.00 | 0.00 | 0.00 | 88 | 983.5 |
| 20260506202519 | 60 | 286 | 4.3 | 6.1 | 0.00 | 0.00 | 0.00 | 87 | 983.2 |
| 20260506202117 | 60 | 316 | 4.3 | 7.0 | 0.00 | 0.00 | 0.00 | 87 | 983.1 |
| 20260506201717 | 60 | 332 | 4.3 | 6.1 | 0.00 | 0.00 | 0.00 | 87 | 983.2 |
| 20260506201317 | 60 | 319 | 2.6 | 3.5 | 0.00 | 0.00 | 0.00 | 87 | 983.2 |
| 20260506200917 | 60 | 314 | 6.1 | 7.8 | 0.00 | 0.00 | 0.00 | 88 | 983.2 |
| 20260506200517 | 60 | 319 | 7.8 | 9.6 | 0.00 | 0.00 | 0.00 | 88 | 983.2 |
| 20260506200115 | 61 | 9 | 9.6 | 12.2 | 0.00 | 0.00 | 0.00 | 88 | 983.1 |
| 20260506195715 | 61 | 335 | 8.7 | 11.3 | 0.00 | 0.00 | 0.00 | 86 | 983.3 |
| 20260506195315 | 61 | 291 | 3.5 | 6.1 | 0.00 | 0.00 | 0.00 | 86 | 983.5 |
| 20260506194913 | 61 | 242 | 4.3 | 6.1 | 0.00 | 0.00 | 0.00 | 86 | 983.4 |
| 20260506194513 | 61 | 290 | 6.1 | 7.8 | 0.00 | 0.00 | 0.00 | 86 | 983.2 |
| 20260506194111 | 62 | 312 | 9.6 | 13.0 | 0.00 | 0.00 | 0.00 | 86 | 983.1 |
| 20260506193711 | 62 | 308 | 11.3 | 13.9 | 0.00 | 0.00 | 0.00 | 84 | 983.1 |
| 20260506193311 | 63 | 303 | 10.4 | 13.0 | 0.00 | 0.00 | 0.00 | 82 | 983.2 |
| 20260506192911 | 63 | 298 | 10.4 | 12.2 | 0.00 | 0.00 | 0.00 | 80 | 983.3 |
| 20260506192511 | 63 | 286 | 8.7 | 13.0 | 0.00 | 0.00 | 0.00 | 77 | 983.3 |
| 20260506192109 | 64 | 296 | 7.8 | 11.3 | 0.00 | 0.00 | 0.00 | 76 | 983.3 |
| 20260506191709 | 64 | 301 | 7.8 | 10.4 | 0.00 | 0.00 | 0.00 | 76 | 983.2 |
| 20260506191307 | 64 | 284 | 10.4 | 14.8 | 0.00 | 0.00 | 0.00 | 74 | 983.2 |
| 20260506190907 | 65 | 273 | 9.6 | 12.2 | 0.00 | 0.00 | 0.00 | 73 | 983.2 |
| 20260506190507 | 65 | 292 | 7.8 | 9.6 | 0.00 | 0.00 | 0.00 | 71 | 982.9 |
| 20260506190105 | 66 | 309 | 6.1 | 7.0 | 0.00 | 0.00 | 0.00 | 70 | 982.7 |
| 20260506185705 | 66 | 279 | 4.3 | 6.1 | 0.00 | 0.00 | 0.00 | 69 | 982.6 |
| 20260506185307 | 66 | 250 | 2.6 | 3.5 | 0.00 | 0.00 | 0.00 | 68 | 982.6 |
| 20260506184906 | 66 | 294 | 3.5 | 4.3 | 0.00 | 0.00 | 0.00 | 67 | 982.6 |
| 20260506184505 | 66 | 264 | 5.2 | 7.0 | 0.00 | 0.00 | 0.00 | 68 | 982.5 |
| 20260506184056 | 66 | 275 | 7.8 | 12.2 | 0.00 | 0.00 | 0.00 | 67 | 982.5 |
| 20260506183652 | 67 | 285 | 8.7 | 10.4 | 0.00 | 0.00 | 0.00 | 65 | 982.4 |
| 20260506183251 | 67 | 302 | 7.0 | 7.8 | 0.00 | 0.00 | 0.00 | 64 | 982.3 |
| 20260506182851 | 68 | 288 | 4.3 | 6.1 | 0.00 | 0.00 | 0.00 | 63 | 982.2 |
| 20260506182450 | 69 | 288 | 8.7 | 10.4 | 0.00 | 0.00 | 0.00 | 62 | 982.2 |
| 20260506182048 | 70 | 280 | 10.4 | 12.2 | 0.00 | 0.00 | 0.00 | 60 | 982.2 |
| 20260506181648 | 70 | 244 | 6.1 | 10.4 | 0.00 | 0.00 | 0.00 | 57 | 982.0 |
| 20260506181248 | 70 | 210 | 1.7 | 1.7 | 0.00 | 0.00 | 0.00 | 56 | 981.9 |
| 20260506180848 | 70 | 164 | 0.9 | 1.7 | 0.00 | 0.00 | 0.00 | 56 | 981.8 |
| 20260506180448 | 70 | 156 | 0.9 | 1.7 | 0.00 | 0.00 | 0.00 | 55 | 981.7 |
| 20260506180045 | 70 | 154 | 0.9 | 1.7 | 0.00 | 0.00 | 0.00 | 55 | 981.7 |
| 20260506175645 | 70 | 146 | 0.9 | 0.9 | 0.00 | 0.00 | 0.00 | 55 | 981.6 |
| 20260506175246 | 71 | 148 | 0.9 | 1.7 | 0.00 | 0.00 | 0.00 | 55 | 981.6 |
| 20260506174845 | 71 | 131 | 0.0 | 0.0 | 0.00 | 0.00 | 0.00 | 54 | 981.6 |
| 20260506174446 | 71 | 116 | 0.0 | 0.9 | 0.00 | 0.00 | 0.00 | 54 | 981.5 |
| 20260506174043 | 71 | 122 | 0.9 | 3.5 | 0.00 | 0.00 | 0.00 | 54 | 981.5 |
| 20260506173643 | 71 | 131 | 1.7 | 5.2 | 0.00 | 0.00 | 0.00 | 54 | 981.5 |
| 20260506173243 | 71 | 115 | 0.9 | 2.6 | 0.00 | 0.00 | 0.00 | 53 | 981.6 |
| 20260506172841 | 71 | 129 | 0.9 | 1.7 | 0.00 | 0.00 | 0.00 | 53 | 981.7 |
| 20260506172441 | 72 | 124 | 0.9 | 1.7 | 0.00 | 0.00 | 0.00 | 53 | 981.6 |
| 20260506172039 | 72 | 112 | 1.7 | 3.5 | 0.00 | 0.00 | 0.00 | 52 | 981.6 |
| 20260506171639 | 72 | 112 | 1.7 | 3.5 | 0.00 | 0.00 | 0.00 | 52 | 981.6 |
| 20260506171239 | 72 | 111 | 1.7 | 3.5 | 0.00 | 0.00 | 0.00 | 52 | 981.6 |
| 20260506170838 | 72 | 122 | 1.7 | 3.5 | 0.00 | 0.00 | 0.00 | 51 | 981.6 |
| 20260506170438 | 72 | 110 | 2.6 | 5.2 | 0.00 | 0.00 | 0.00 | 51 | 981.6 |
| 20260506170036 | 72 | 121 | 3.5 | 5.2 | 0.00 | 0.00 | 0.00 | 51 | 981.7 |
| 20260506165636 | 72 | 125 | 2.6 | 5.2 | 0.00 | 0.00 | 0.00 | 51 | 981.7 |
| 20260506165234 | 73 | 109 | 2.6 | 3.5 | 0.00 | 0.00 | 0.00 | 51 | 981.7 |
| 20260506164834 | 73 | 117 | 2.6 | 4.3 | 0.00 | 0.00 | 0.00 | 50 | 981.7 |
| 20260506164434 | 73 | 106 | 2.6 | 4.3 | 0.00 | 0.00 | 0.00 | 50 | 981.8 |
| 20260506164032 | 73 | 123 | 1.7 | 2.6 | 0.00 | 0.00 | 0.00 | 50 | 981.9 |
| 20260506163632 | 73 | 111 | 2.6 | 5.2 | 0.00 | 0.00 | 0.00 | 50 | 981.9 |
| 20260506163232 | 73 | 121 | 1.7 | 3.5 | 0.00 | 0.00 | 0.00 | 50 | 981.9 |
| 20260506162832 | 73 | 128 | 1.7 | 3.5 | 0.00 | 0.00 | 0.00 | 50 | 982.0 |
| 20260506162432 | 73 | 172 | 1.7 | 5.2 | 0.00 | 0.00 | 0.00 | 50 | 982.0 |
| 20260506162030 | 73 | 100 | 0.9 | 1.7 | 0.00 | 0.00 | 0.00 | 50 | 982.1 |
| 20260506161628 | 73 | 97 | 0.0 | 0.9 | 0.00 | 0.00 | 0.00 | 50 | 982.1 |
| 20260506161228 | 73 | 98 | 0.9 | 1.7 | 0.00 | 0.00 | 0.00 | 50 | 982.1 |
| 20260506160820 | 73 | 177 | 0.0 | 1.7 | 0.00 | 0.00 | 0.00 | 50 | 982.2 |
| 20260506160419 | 73 | 190 | 0.9 | 1.7 | 0.00 | 0.00 | 0.00 | 50 | 982.1 |
| 20260506160017 | 73 | 165 | 0.9 | 1.7 | 0.00 | 0.00 | 0.00 | 51 | 982.2 |
| 20260506155616 | 73 | 190 | 0.9 | 1.7 | 0.00 | 0.00 | 0.00 | 51 | 982.3 |
| 20260506155216 | 73 | 202 | 1.7 | 3.5 | 0.00 | 0.00 | 0.00 | 51 | 982.3 |
| 20260506154816 | 73 | 199 | 1.7 | 2.6 | 0.00 | 0.00 | 0.00 | 51 | 982.4 |
| 20260506154415 | 73 | 217 | 2.6 | 4.3 | 0.00 | 0.00 | 0.00 | 51 | 982.4 |
| 20260506154013 | 73 | 224 | 3.5 | 5.2 | 0.00 | 0.00 | 0.00 | 50 | 982.4 |
| 20260506153613 | 73 | 214 | 2.6 | 3.5 | 0.00 | 0.00 | 0.00 | 50 | 982.5 |
| 20260506153213 | 73 | 175 | 0.9 | 4.3 | 0.00 | 0.00 | 0.00 | 50 | 982.5 |
| 20260506152813 | 73 | 190 | 2.6 | 4.3 | 0.00 | 0.00 | 0.00 | 50 | 982.6 |
| 20260506152413 | 73 | 203 | 2.6 | 4.3 | 0.00 | 0.00 | 0.00 | 50 | 982.6 |
| 20260506152011 | 73 | 204 | 5.2 | 6.1 | 0.00 | 0.00 | 0.00 | 50 | 982.6 |
| 20260506151612 | 73 | 199 | 6.1 | 10.4 | 0.00 | 0.00 | 0.00 | 49 | 982.6 |
| 20260506151211 | 73 | 187 | 4.3 | 10.4 | 0.00 | 0.00 | 0.00 | 48 | 982.6 |
| 20260506150809 | 73 | 167 | 3.5 | 10.4 | 0.00 | 0.00 | 0.00 | 48 | 982.6 |
| 20260506150409 | 73 | 189 | 3.5 | 7.8 | 0.00 | 0.00 | 0.00 | 47 | 982.7 |
| 20260506150006 | 73 | 168 | 4.3 | 7.0 | 0.00 | 0.00 | 0.00 | 47 | 982.7 |
| 20260506145606 | 73 | 141 | 3.5 | 8.7 | 0.00 | 0.00 | 0.00 | 46 | 982.7 |
| 20260506145206 | 74 | 161 | 2.6 | 5.2 | 0.00 | 0.00 | 0.00 | 46 | 982.7 |
| 20260506144806 | 74 | 173 | 1.7 | 3.5 | 0.00 | 0.00 | 0.00 | 45 | 982.7 |
| 20260506144406 | 74 | 305 | 1.7 | 2.6 | 0.00 | 0.00 | 0.00 | 45 | 982.7 |
| 20260506144004 | 74 | 236 | 1.7 | 2.6 | 0.00 | 0.00 | 0.00 | 45 | 982.8 |
| 20260506143604 | 74 | 235 | 1.7 | 2.6 | 0.00 | 0.00 | 0.00 | 45 | 982.8 |
| 20260506143202 | 75 | 281 | 0.9 | 1.7 | 0.00 | 0.00 | 0.00 | 44 | 982.7 |
| 20260506142802 | 75 | 268 | 2.6 | 4.3 | 0.00 | 0.00 | 0.00 | 44 | 982.7 |
| 20260506142402 | 75 | 273 | 4.3 | 6.1 | 0.00 | 0.00 | 0.00 | 44 | 982.7 |
| 20260506142000 | 75 | 265 | 1.7 | 3.5 | 0.00 | 0.00 | 0.00 | 44 | 982.7 |
| 20260506141559 | 75 | 234 | 1.7 | 4.3 | 0.00 | 0.00 | 0.00 | 44 | 982.8 |
| 20260506141159 | 75 | 242 | 2.6 | 5.2 | 0.00 | 0.00 | 0.00 | 44 | 982.8 |
| 20260506140759 | 75 | 228 | 1.7 | 3.5 | 0.00 | 0.00 | 0.00 | 45 | 982.8 |
| 20260506140359 | 74 | 238 | 2.6 | 5.2 | 0.00 | 0.00 | 0.00 | 44 | 982.9 |
| 20260506135957 | 74 | 272 | 4.3 | 6.1 | 0.00 | 0.00 | 0.00 | 44 | 982.9 |
| 20260506135555 | 74 | 267 | 0.9 | 2.6 | 0.00 | 0.00 | 0.00 | 44 | 982.9 |
| 20260506135155 | 74 | 170 | 1.7 | 3.5 | 0.00 | 0.00 | 0.00 | 45 | 983.0 |
| 20260506134755 | 74 | 200 | 3.5 | 5.2 | 0.00 | 0.00 | 0.00 | 44 | 983.1 |
| 20260506134355 | 74 | 235 | 5.2 | 8.7 | 0.00 | 0.00 | 0.00 | 44 | 983.1 |
| 20260506133945 | 74 | 217 | 4.3 | 7.8 | 0.00 | 0.00 | 0.00 | 44 | 983.1 |
| 20260506133545 | 74 | 187 | 5.2 | 7.8 | 0.00 | 0.00 | 0.00 | 44 | 983.1 |
| 20260506133143 | 74 | 199 | 2.6 | 4.3 | 0.00 | 0.00 | 0.00 | 44 | 983.1 |
| 20260506132742 | 74 | 224 | 4.3 | 7.0 | 0.00 | 0.00 | 0.00 | 44 | 983.1 |
| 20260506132342 | 74 | 215 | 5.2 | 7.8 | 0.00 | 0.00 | 0.00 | 44 | 983.1 |
| 20260506131940 | 74 | 204 | 6.1 | 8.7 | 0.00 | 0.00 | 0.00 | 44 | 983.1 |
| 20260506131540 | 74 | 188 | 8.7 | 12.2 | 0.00 | 0.00 | 0.00 | 44 | 983.1 |
| 20260506131140 | 74 | 214 | 5.2 | 8.7 | 0.00 | 0.00 | 0.00 | 44 | 983.1 |
| 20260506130740 | 74 | 229 | 5.2 | 7.8 | 0.00 | 0.00 | 0.00 | 44 | 983.1 |
| 20260506130340 | 74 | 200 | 7.0 | 11.3 | 0.00 | 0.00 | 0.00 | 44 | 983.0 |
| 20260506125938 | 74 | 225 | 8.7 | 10.4 | 0.00 | 0.00 | 0.00 | 43 | 983.1 |
| 20260506125538 | 74 | 200 | 7.8 | 10.4 | 0.00 | 0.00 | 0.00 | 44 | 983.1 |
| 20260506125138 | 74 | 206 | 8.7 | 12.2 | 0.00 | 0.00 | 0.00 | 43 | 983.2 |
| 20260506124736 | 74 | 208 | 9.6 | 15.6 | 0.00 | 0.00 | 0.00 | 43 | 983.2 |
| 20260506124336 | 74 | 218 | 5.2 | 8.7 | 0.00 | 0.00 | 0.00 | 43 | 983.1 |
| 20260506123934 | 74 | 256 | 8.7 | 12.2 | 0.00 | 0.00 | 0.00 | 44 | 983.2 |
| 20260506123534 | 74 | 222 | 6.1 | 10.4 | 0.00 | 0.00 | 0.00 | 44 | 983.3 |
| 20260506123133 | 74 | 188 | 3.5 | 7.8 | 0.00 | 0.00 | 0.00 | 44 | 983.2 |
| 20260506122734 | 74 | 188 | 5.2 | 10.4 | 0.00 | 0.00 | 0.00 | 44 | 983.3 |
| 20260506122334 | 73 | 171 | 6.1 | 12.2 | 0.00 | 0.00 | 0.00 | 45 | 983.4 |
| 20260506121932 | 73 | 176 | 6.1 | 9.6 | 0.00 | 0.00 | 0.00 | 45 | 983.4 |
| 20260506121532 | 73 | 209 | 8.7 | 10.4 | 0.00 | 0.00 | 0.00 | 45 | 983.4 |
| 20260506121132 | 73 | 199 | 7.0 | 12.2 | 0.00 | 0.00 | 0.00 | 45 | 983.4 |
| 20260506120731 | 73 | 201 | 7.0 | 11.3 | 0.00 | 0.00 | 0.00 | 46 | 983.3 |
| 20260506120331 | 73 | 174 | 7.0 | 10.4 | 0.00 | 0.00 | 0.00 | 47 | 983.2 |
| 20260506115929 | 73 | 190 | 7.0 | 15.6 | 0.00 | 0.00 | 0.00 | 48 | 983.2 |
| 20260506115529 | 73 | 197 | 3.5 | 6.1 | 0.00 | 0.00 | 0.00 | 49 | 983.2 |
| 20260506115129 | 73 | 224 | 2.6 | 4.3 | 0.00 | 0.00 | 0.00 | 49 | 983.2 |
| 20260506114729 | 72 | 228 | 4.3 | 7.0 | 0.00 | 0.00 | 0.00 | 49 | 983.2 |
| 20260506114329 | 72 | 202 | 4.3 | 8.7 | 0.00 | 0.00 | 0.00 | 49 | 983.2 |
| 20260506113927 | 72 | 215 | 4.3 | 8.7 | 0.00 | 0.00 | 0.00 | 49 | 983.2 |
| 20260506113524 | 72 | 212 | 8.7 | 13.9 | 0.00 | 0.00 | 0.00 | 49 | 983.2 |
| 20260506113124 | 72 | 188 | 4.3 | 7.8 | 0.00 | 0.00 | 0.00 | 49 | 983.3 |
| 20260506112725 | 72 | 202 | 7.0 | 10.4 | 0.00 | 0.00 | 0.00 | 50 | 983.3 |
| 20260506112324 | 72 | 217 | 4.3 | 9.6 | 0.00 | 0.00 | 0.00 | 50 | 983.3 |
| 20260506111922 | 71 | 216 | 7.0 | 14.8 | 0.00 | 0.00 | 0.00 | 51 | 983.3 |
| 20260506111522 | 71 | 143 | 3.5 | 8.7 | 0.00 | 0.00 | 0.00 | 51 | 983.4 |
| 20260506111122 | 71 | 179 | 6.1 | 13.0 | 0.00 | 0.00 | 0.00 | 52 | 983.4 |
| 20260506110715 | 71 | 223 | 7.0 | 8.7 | 0.00 | 0.00 | 0.00 | 52 | 983.3 |
| 20260506110314 | 71 | 246 | 7.0 | 13.0 | 0.00 | 0.00 | 0.00 | 53 | 983.2 |
| 20260506105911 | 70 | 235 | 5.2 | 8.7 | 0.00 | 0.00 | 0.00 | 53 | 983.4 |
| 20260506105510 | 70 | 242 | 7.0 | 12.2 | 0.00 | 0.00 | 0.00 | 54 | 983.4 |
| 20260506105110 | 70 | 234 | 7.8 | 12.2 | 0.00 | 0.00 | 0.00 | 53 | 983.4 |
| 20260506104710 | 70 | 174 | 2.6 | 5.2 | 0.00 | 0.00 | 0.00 | 54 | 983.5 |
| 20260506104310 | 70 | 174 | 8.7 | 13.0 | 0.00 | 0.00 | 0.00 | 54 | 983.5 |
| 20260506103909 | 69 | 213 | 4.3 | 7.0 | 0.00 | 0.00 | 0.00 | 55 | 983.4 |
| 20260506103509 | 69 | 209 | 8.7 | 13.0 | 0.00 | 0.00 | 0.00 | 55 | 983.4 |
| 20260506103109 | 69 | 237 | 8.7 | 12.2 | 0.00 | 0.00 | 0.00 | 56 | 983.4 |
| 20260506102706 | 69 | 208 | 5.2 | 9.6 | 0.00 | 0.00 | 0.00 | 56 | 983.5 |
| 20260506102306 | 69 | 221 | 9.6 | 13.9 | 0.00 | 0.00 | 0.00 | 56 | 983.5 |
| 20260506101904 | 69 | 240 | 9.6 | 14.8 | 0.00 | 0.00 | 0.00 | 57 | 983.5 |
| 20260506101504 | 69 | 219 | 7.0 | 8.7 | 0.00 | 0.00 | 0.00 | 58 | 983.5 |
| 20260506101104 | 69 | 238 | 5.2 | 9.6 | 0.00 | 0.00 | 0.00 | 58 | 983.5 |
| 20260506100704 | 69 | 217 | 9.6 | 13.9 | 0.00 | 0.00 | 0.00 | 58 | 983.4 |
| 20260506100304 | 69 | 242 | 9.6 | 14.8 | 0.00 | 0.00 | 0.00 | 57 | 983.4 |
| 20260506095901 | 69 | 219 | 8.7 | 14.8 | 0.00 | 0.00 | 0.00 | 58 | 983.4 |
| 20260506095501 | 69 | 216 | 7.0 | 10.4 | 0.00 | 0.00 | 0.00 | 58 | 983.5 |
| 20260506095101 | 69 | 234 | 10.4 | 14.8 | 0.00 | 0.00 | 0.00 | 58 | 983.5 |
| 20260506094701 | 69 | 215 | 5.2 | 8.7 | 0.00 | 0.00 | 0.00 | 58 | 983.5 |
| 20260506094301 | 69 | 215 | 7.0 | 10.4 | 0.00 | 0.00 | 0.00 | 58 | 983.5 |
| 20260506093859 | 69 | 226 | 10.4 | 13.9 | 0.00 | 0.00 | 0.00 | 58 | 983.4 |
| 20260506093459 | 68 | 243 | 5.2 | 11.3 | 0.00 | 0.00 | 0.00 | 58 | 983.4 |
| 20260506093059 | 68 | 224 | 4.3 | 7.0 | 0.00 | 0.00 | 0.00 | 58 | 983.4 |
| 20260506092659 | 68 | 224 | 8.7 | 13.9 | 0.00 | 0.00 | 0.00 | 58 | 983.4 |
| 20260506092259 | 69 | 215 | 12.2 | 13.9 | 0.00 | 0.00 | 0.00 | 57 | 983.3 |
| 20260506091857 | 69 | 213 | 7.0 | 8.7 | 0.00 | 0.00 | 0.00 | 57 | 983.4 |
| 20260506091455 | 69 | 217 | 12.2 | 18.2 | 0.00 | 0.00 | 0.00 | 57 | 983.4 |
| 20260506091055 | 68 | 243 | 9.6 | 12.2 | 0.00 | 0.00 | 0.00 | 57 | 983.4 |
| 20260506090655 | 68 | 219 | 5.2 | 11.3 | 0.00 | 0.00 | 0.00 | 57 | 983.4 |
| 20260506090255 | 68 | 203 | 7.0 | 10.4 | 0.00 | 0.00 | 0.00 | 57 | 983.4 |
| 20260506085853 | 68 | 220 | 9.6 | 13.0 | 0.00 | 0.00 | 0.00 | 57 | 983.3 |
| 20260506085053 | 68 | 184 | 6.1 | 10.4 | 0.00 | 0.00 | 0.00 | 57 | 983.3 |
| 20260506084653 | 68 | 206 | 8.7 | 13.0 | 0.00 | 0.00 | 0.00 | 58 | 983.2 |
| 20260506084253 | 68 | 214 | 8.7 | 10.4 | 0.00 | 0.00 | 0.00 | 59 | 983.2 |
| 20260506083844 | 68 | 222 | 8.7 | 13.0 | 0.00 | 0.00 | 0.00 | 59 | 983.2 |
| 20260506083443 | 68 | 211 | 7.8 | 12.2 | 0.00 | 0.00 | 0.00 | 59 | 983.2 |
| 20260506083042 | 68 | 201 | 7.8 | 12.2 | 0.00 | 0.00 | 0.00 | 59 | 983.3 |
| 20260506082641 | 68 | 205 | 9.6 | 13.9 | 0.00 | 0.00 | 0.00 | 60 | 983.3 |
| 20260506082241 | 67 | 239 | 5.2 | 8.7 | 0.00 | 0.00 | 0.00 | 60 | 983.1 |
| 20260506081839 | 67 | 224 | 8.7 | 13.0 | 0.00 | 0.00 | 0.00 | 60 | 983.1 |
| 20260506081439 | 67 | 224 | 2.6 | 5.2 | 0.00 | 0.00 | 0.00 | 62 | 983.1 |
| 20260506081039 | 66 | 209 | 5.2 | 10.4 | 0.00 | 0.00 | 0.00 | 62 | 983.1 |
| 20260506080637 | 66 | 231 | 6.1 | 10.4 | 0.00 | 0.00 | 0.00 | 63 | 983.1 |
| 20260506080236 | 66 | 202 | 5.2 | 10.4 | 0.00 | 0.00 | 0.00 | 63 | 983.0 |
| 20260506073433 | 65 | 208 | 7.0 | 10.4 | 0.00 | 0.00 | 0.00 | 64 | 983.1 |
| 20260506073033 | 65 | 189 | 6.1 | 10.4 | 0.00 | 0.00 | 0.00 | 64 | 983.1 |
| 20260506072633 | 65 | 203 | 5.2 | 8.7 | 0.00 | 0.00 | 0.00 | 65 | 983.1 |
| 20260506072233 | 65 | 227 | 6.1 | 9.6 | 0.00 | 0.00 | 0.00 | 64 | 983.1 |
| 20260506071831 | 65 | 208 | 3.5 | 6.1 | 0.00 | 0.00 | 0.00 | 65 | 983.1 |
| 20260506071431 | 65 | 208 | 4.3 | 8.7 | 0.00 | 0.00 | 0.00 | 65 | 983.0 |
| 20260506071031 | 65 | 227 | 5.2 | 7.8 | 0.00 | 0.00 | 0.00 | 65 | 983.0 |
| 20260506070631 | 65 | 222 | 8.7 | 13.9 | 0.00 | 0.00 | 0.00 | 65 | 983.0 |
| 20260506070231 | 64 | 230 | 5.2 | 8.7 | 0.00 | 0.00 | 0.00 | 65 | 983.1 |
| 20260506062225 | 63 | 201 | 2.6 | 4.3 | 0.00 | 0.00 | 0.00 | 65 | 982.7 |
| 20260506061823 | 63 | 195 | 3.5 | 5.2 | 0.00 | 0.00 | 0.00 | 65 | 982.8 |
| 20260506061423 | 63 | 197 | 3.5 | 7.0 | 0.00 | 0.00 | 0.00 | 65 | 982.8 |
| 20260506061023 | 63 | 155 | 1.7 | 2.6 | 0.00 | 0.00 | 0.00 | 66 | 982.8 |
| 20260506060615 | 63 | 181 | 1.7 | 3.5 | 0.00 | 0.00 | 0.00 | 66 | 982.9 |
| 20260506060214 | 63 | 187 | 2.6 | 3.5 | 0.00 | 0.00 | 0.00 | 66 | 982.8 |
| 20260506051403 | 60 | 161 | 1.7 | 4.3 | 0.00 | 0.00 | 0.00 | 70 | 982.3 |
| 20260506051003 | 60 | 146 | 1.7 | 3.5 | 0.00 | 0.00 | 0.00 | 70 | 982.3 |
| 20260506050603 | 59 | 177 | 2.6 | 3.5 | 0.00 | 0.00 | 0.00 | 70 | 982.3 |
| 20260506050204 | 59 | 170 | 1.7 | 3.5 | 0.00 | 0.00 | 0.00 | 70 | 982.4 |
| 20260506045001 | 60 | 172 | 4.3 | 7.0 | 0.00 | 0.00 | 0.00 | 70 | 982.3 |
| 20260506044601 | 60 | 189 | 3.5 | 7.0 | 0.00 | 0.00 | 0.00 | 70 | 982.3 |
| 20260506044201 | 60 | 177 | 3.5 | 6.1 | 0.00 | 0.00 | 0.00 | 70 | 982.3 |
| 20260506043759 | 60 | 170 | 2.6 | 5.2 | 0.00 | 0.00 | 0.00 | 70 | 982.2 |
| 20260506043357 | 60 | 172 | 3.5 | 6.1 | 0.00 | 0.00 | 0.00 | 70 | 982.1 |
| 20260506042957 | 60 | 166 | 3.5 | 6.1 | 0.00 | 0.00 | 0.00 | 70 | 982.1 |
| 20260506042557 | 59 | 151 | 2.6 | 4.3 | 0.00 | 0.00 | 0.00 | 70 | 981.9 |
| 20260506042157 | 59 | 116 | 2.6 | 4.3 | 0.00 | 0.00 | 0.00 | 70 | 981.8 |
| 20260506041755 | 59 | 133 | 2.6 | 5.2 | 0.00 | 0.00 | 0.00 | 70 | 981.9 |
| 20260506041355 | 59 | 149 | 1.7 | 3.5 | 0.00 | 0.00 | 0.00 | 70 | 982.0 |
| 20260506040955 | 59 | 166 | 2.6 | 3.5 | 0.00 | 0.00 | 0.00 | 70 | 982.0 |
| 20260506040555 | 59 | 153 | 2.6 | 4.3 | 0.00 | 0.00 | 0.00 | 70 | 981.9 |
| 20260506040155 | 59 | 165 | 0.9 | 3.5 | 0.00 | 0.00 | 0.00 | 70 | 981.9 |
| 20260506035753 | 59 | 126 | 1.7 | 2.6 | 0.00 | 0.00 | 0.00 | 70 | 981.8 |
| 20260506035353 | 59 | 123 | 1.7 | 2.6 | 0.00 | 0.00 | 0.00 | 70 | 981.7 |
| 20260506034953 | 59 | 131 | 1.7 | 2.6 | 0.00 | 0.00 | 0.00 | 70 | 981.7 |
| 20260506034553 | 59 | 132 | 1.7 | 3.5 | 0.00 | 0.00 | 0.00 | 70 | 981.7 |
| 20260506034153 | 59 | 124 | 2.6 | 4.3 | 0.00 | 0.00 | 0.00 | 70 | 981.7 |
| 20260506033744 | 59 | 145 | 2.6 | 3.5 | 0.00 | 0.00 | 0.00 | 70 | 981.7 |
| 20260506033343 | 59 | 139 | 2.6 | 4.3 | 0.00 | 0.00 | 0.00 | 69 | 981.8 |
| 20260506032942 | 59 | 151 | 2.6 | 3.5 | 0.00 | 0.00 | 0.00 | 69 | 981.8 |
| 20260506032538 | 59 | 143 | 1.7 | 3.5 | 0.00 | 0.00 | 0.00 | 69 | 981.8 |
| 20260506032138 | 59 | 138 | 2.6 | 3.5 | 0.00 | 0.00 | 0.00 | 69 | 981.8 |
| 20260506031736 | 60 | 132 | 1.7 | 3.5 | 0.00 | 0.00 | 0.00 | 68 | 981.9 |
| 20260506031336 | 60 | 138 | 1.7 | 4.3 | 0.00 | 0.00 | 0.00 | 68 | 981.9 |
| 20260506030936 | 60 | 138 | 1.7 | 3.5 | 0.00 | 0.00 | 0.00 | 68 | 982.0 |
| 20260506030536 | 60 | 159 | 2.6 | 5.2 | 0.00 | 0.00 | 0.00 | 68 | 982.0 |
| 20260506030136 | 60 | 154 | 3.5 | 5.2 | 0.00 | 0.00 | 0.00 | 67 | 982.0 |
| 20260506025734 | 60 | 160 | 3.5 | 5.2 | 0.00 | 0.00 | 0.00 | 67 | 981.9 |
| 20260506025334 | 60 | 158 | 3.5 | 5.2 | 0.00 | 0.00 | 0.00 | 67 | 982.0 |
| 20260506024934 | 60 | 151 | 2.6 | 5.2 | 0.00 | 0.00 | 0.00 | 66 | 982.1 |
| 20260506024534 | 60 | 162 | 1.7 | 4.3 | 0.00 | 0.00 | 0.00 | 66 | 982.1 |
| 20260506024133 | 61 | 143 | 1.7 | 3.5 | 0.00 | 0.00 | 0.00 | 66 | 982.1 |
| 20260506023731 | 61 | 136 | 1.7 | 2.6 | 0.00 | 0.00 | 0.00 | 65 | 982.1 |
| 20260506023331 | 61 | 132 | 1.7 | 2.6 | 0.00 | 0.00 | 0.00 | 65 | 982.1 |
| 20260506022931 | 61 | 126 | 1.7 | 2.6 | 0.00 | 0.00 | 0.00 | 65 | 982.1 |
| 20260506022531 | 61 | 171 | 0.9 | 1.7 | 0.00 | 0.00 | 0.00 | 65 | 982.1 |
| 20260506022131 | 61 | 179 | 0.9 | 1.7 | 0.00 | 0.00 | 0.00 | 64 | 982.1 |
| 20260506021729 | 61 | 156 | 1.7 | 3.5 | 0.00 | 0.00 | 0.00 | 64 | 982.1 |
| 20260506021327 | 61 | 172 | 1.7 | 2.6 | 0.00 | 0.00 | 0.00 | 64 | 982.1 |
| 20260506020926 | 61 | 156 | 1.7 | 1.7 | 0.00 | 0.00 | 0.00 | 64 | 982.1 |
| 20260506020526 | 61 | 181 | 1.7 | 2.6 | 0.00 | 0.00 | 0.00 | 64 | 982.1 |
| 20260506020126 | 61 | 202 | 0.0 | 0.0 | 0.00 | 0.00 | 0.00 | 64 | 982.0 |
| 20260506015724 | 61 | 198 | 0.9 | 1.7 | 0.00 | 0.00 | 0.00 | 63 | 982.1 |
| 20260506015324 | 62 | 185 | 0.9 | 1.7 | 0.00 | 0.00 | 0.00 | 63 | 982.0 |
| 20260506014924 | 62 | 198 | 1.7 | 1.7 | 0.00 | 0.00 | 0.00 | 63 | 982.1 |
| 20260506014524 | 62 | 213 | 0.9 | 1.7 | 0.00 | 0.00 | 0.00 | 63 | 982.0 |
| 20260506014124 | 62 | 218 | 1.7 | 3.5 | 0.00 | 0.00 | 0.00 | 63 | 982.1 |
| 20260506013722 | 62 | 213 | 2.6 | 3.5 | 0.00 | 0.00 | 0.00 | 63 | 982.0 |
| 20260506013322 | 62 | 230 | 1.7 | 2.6 | 0.00 | 0.00 | 0.00 | 63 | 982.1 |
| 20260506012922 | 62 | 224 | 2.6 | 4.3 | 0.00 | 0.00 | 0.00 | 63 | 982.0 |
| 20260506012522 | 62 | 212 | 3.5 | 4.3 | 0.00 | 0.00 | 0.00 | 62 | 982.0 |
| 20260506012122 | 62 | 196 | 1.7 | 3.5 | 0.00 | 0.00 | 0.00 | 62 | 982.0 |
| 20260506011720 | 62 | 198 | 3.5 | 5.2 | 0.00 | 0.00 | 0.00 | 62 | 982.0 |
| 20260506011320 | 62 | 186 | 2.6 | 5.2 | 0.00 | 0.00 | 0.00 | 62 | 982.0 |
| 20260506010920 | 62 | 171 | 3.5 | 6.1 | 0.00 | 0.00 | 0.00 | 61 | 982.0 |
| 20260506010510 | 62 | 163 | 3.5 | 6.1 | 0.00 | 0.00 | 0.00 | 61 | 982.0 |
| 20260506010109 | 62 | 168 | 2.6 | 7.0 | 0.00 | 0.00 | 0.00 | 60 | 982.0 |
| 20260506005706 | 62 | 160 | 1.7 | 5.2 | 0.00 | 0.00 | 0.00 | 60 | 981.9 |
| 20260506005306 | 62 | 144 | 3.5 | 6.1 | 0.00 | 0.00 | 0.00 | 60 | 981.9 |
| 20260506004905 | 62 | 156 | 0.9 | 1.7 | 0.00 | 0.00 | 0.00 | 60 | 981.9 |
| 20260506004505 | 63 | 147 | 3.5 | 6.1 | 0.00 | 0.00 | 0.00 | 59 | 981.9 |
| 20260506004105 | 63 | 142 | 2.6 | 7.8 | 0.00 | 0.00 | 0.00 | 59 | 981.8 |
| 20260506003703 | 63 | 147 | 2.6 | 4.3 | 0.00 | 0.00 | 0.00 | 59 | 981.8 |
| 20260506003303 | 63 | 128 | 3.5 | 6.1 | 0.00 | 0.00 | 0.00 | 58 | 981.7 |
| 20260506002903 | 63 | 120 | 3.5 | 7.0 | 0.00 | 0.00 | 0.00 | 58 | 981.7 |
| 20260506002503 | 63 | 135 | 2.6 | 4.3 | 0.00 | 0.00 | 0.00 | 58 | 981.8 |
| 20260506002103 | 63 | 146 | 3.5 | 7.0 | 0.00 | 0.00 | 0.00 | 58 | 981.9 |
| 20260506001701 | 63 | 136 | 3.5 | 6.1 | 0.00 | 0.00 | 0.00 | 57 | 981.9 |
| 20260506001301 | 63 | 169 | 3.5 | 6.1 | 0.00 | 0.00 | 0.00 | 57 | 981.9 |
| 20260506000901 | 64 | 156 | 2.6 | 5.2 | 0.00 | 0.00 | 0.00 | 57 | 981.9 |
| 20260506000501 | 64 | 152 | 4.3 | 10.4 | 0.00 | 0.00 | 0.00 | 57 | 981.9 |
| 20260505235700 | 64 | 163 | 4.3 | 8.7 | 0.00 | 0.00 | 0.00 | 56 | 982.0 |
| 20260505235257 | 64 | 165 | 5.2 | 8.7 | 0.00 | 0.00 | 0.00 | 56 | 982.0 |
| 20260505234857 | 64 | 141 | 4.3 | 7.8 | 0.00 | 0.00 | 0.00 | 55 | 982.0 |
| 20260505234457 | 64 | 142 | 4.3 | 7.0 | 0.00 | 0.00 | 0.00 | 55 | 982.1 |
| 20260505234057 | 64 | 150 | 4.3 | 7.8 | 0.00 | 0.00 | 0.00 | 55 | 982.1 |
| 20260505233655 | 64 | 147 | 4.3 | 9.6 | 0.00 | 0.00 | 0.00 | 55 | 982.1 |
| 20260505233255 | 65 | 149 | 3.5 | 7.8 | 0.00 | 0.00 | 0.00 | 54 | 982.1 |
| 20260505232855 | 65 | 135 | 3.5 | 6.1 | 0.00 | 0.00 | 0.00 | 54 | 982.1 |
| 20260505232456 | 65 | 152 | 3.5 | 7.0 | 0.00 | 0.00 | 0.00 | 54 | 982.1 |
| 20260505232056 | 65 | 147 | 5.2 | 9.6 | 0.00 | 0.00 | 0.00 | 54 | 982.2 |
| 20260505231654 | 65 | 142 | 5.2 | 9.6 | 0.00 | 0.00 | 0.00 | 53 | 982.2 |
| 20260505231254 | 65 | 143 | 6.1 | 13.0 | 0.00 | 0.00 | 0.00 | 53 | 982.2 |
| 20260505230854 | 65 | 151 | 6.1 | 10.4 | 0.00 | 0.00 | 0.00 | 53 | 982.2 |
| 20260505230454 | 65 | 163 | 4.3 | 7.8 | 0.00 | 0.00 | 0.00 | 53 | 982.2 |
| 20260505230054 | 65 | 145 | 6.1 | 8.7 | 0.00 | 0.00 | 0.00 | 53 | 982.2 |
| 20260505225652 | 65 | 143 | 6.1 | 11.3 | 0.00 | 0.00 | 0.00 | 52 | 982.2 |
| 20260505225252 | 65 | 148 | 6.1 | 11.3 | 0.00 | 0.00 | 0.00 | 52 | 982.2 |
| 20260505224852 | 66 | 135 | 5.2 | 9.6 | 0.00 | 0.00 | 0.00 | 52 | 982.2 |
| 20260505224450 | 66 | 142 | 6.1 | 13.9 | 0.00 | 0.00 | 0.00 | 52 | 982.3 |